Content
SEND FEEDBACK

Daily
Averages
Monthly
Summary
Canada

VANCOUVER, BRITISH COLUMBIA


Home > North America > Canada > British Columbia
Elevation: 7 feet     Latitude: 49 11N     Longitude: 123 10W

WEATHER
 
SELECT A DAY
Number of Records: 249,596;   Date Range: 5/15/97 - 8/20/14
 
SHARE

PRINT THIS DATA

[ ← Previous Day ]
WEATHER ALMANAC - SEPTEMBER 8, 2013
[ Next Day → ]
[ °C ]   °F
Weather ElementAverageHighLow
Temperature60.5 °F69.8 °F (6:15 pm)53.6 °F (4:55 am)
Dewpoint57.5 °F60.8 °F (1:15 pm)53.6 °F (4:55 am)
Humidity90.2 %100 % (12:35 am)68 % (6:15 pm)
Barometer30.06 in30.10 in (10:35 am)30.01 in (7:35 pm)
Wind Speed2.8 mph9.2 mph (8:55 pm)
Wind Gust16.1 mph (8:55 pm)
Weather ElementAverage
Visibility9.5 mi
Wind DirectionESE (112.3 °)

Weather ElementTotal
Precipitation---
Heating Degree Days3.3 (Base 65)
Growing Degree Days11.7 (Base 50)
Averaged from 71 records on September 8, 2013
WEATHER CONDITIONS BREAKOUT
WIND DIRECTION BREAKOUT
WEATHER BY HOUR - SEPTEMBER 8, 2013
[ °C ]   °F
Local TimeTemperatureDewpointHumidityBarometerVisibilityWind DirectionWind SpeedGust SpeedPrecipitationEventsConditions
12:35 AM57.2 °F57.2 °F100 %30.06 in10.0 miCalmClear
12:55 AM57.2 °F57.2 °F100 %30.06 in10.0 miCalmClear
1:15 AM57.2 °F57.2 °F100 %30.06 in10.0 miCalmClear
1:35 AM57.2 °F57.2 °F100 %30.06 in9.0 miCalmClear
1:55 AM57.2 °F57.2 °F100 %30.06 in9.0 miNorthClear
2:15 AM57.2 °F57.2 °F100 %30.06 in9.0 miCalmClear
2:35 AM57.2 °F57.2 °F100 %30.06 in9.0 miCalmClear
2:55 AM55.4 °F55.4 °F100 %30.07 in9.0 miCalmClear
3:15 AM55.4 °F55.4 °F100 %30.07 in9.0 miCalmClear
3:35 AM55.4 °F55.4 °F100 %30.07 in5.0 miCalmClear
3:55 AM55.4 °F55.4 °F100 %30.07 in5.0 miCalmClear
4:15 AM55.4 °F55.4 °F100 %30.07 in10.0 miCalmClear
4:35 AM55.4 °F55.4 °F100 %30.07 in10.0 miCalmClear
4:55 AM53.6 °F53.6 °F100 %30.07 in9.0 miCalmClear
5:15 AM55.4 °F55.4 °F100 %30.07 in8.0 miCalmClear
5:35 AM53.6 °F53.6 °F100 %30.07 in9.0 miCalmClear
5:55 AM53.6 °F53.6 °F100 %30.07 in7.0 miCalmClear
6:15 AM53.6 °F53.6 °F100 %30.07 in8.0 miCalmClear
6:35 AM53.6 °F53.6 °F100 %30.07 in10.0 miCalmClear
6:55 AM55.4 °F55.4 °F100 %30.08 in6.0 miCalmMostly Cloudy
7:15 AM55.4 °F55.4 °F100 %30.08 in9.0 miCalmMostly Cloudy
7:35 AM55.4 °F55.4 °F100 %30.08 in7.0 miNorthScattered Clouds
7:55 AM55.4 °F55.4 °F100 %30.08 in7.0 miCalmScattered Clouds
8:15 AM57.2 °F57.2 °F100 %30.08 in9.0 miCalmPartly Cloudy
8:35 AM57.2 °F57.2 °F100 %30.08 in9.0 miCalmClear
8:55 AM59.0 °F57.2 °F94 %30.09 in10.0 miCalmPartly Cloudy
9:15 AM59.0 °F59.0 °F100 %30.09 in10.0 miCalmPartly Cloudy
9:35 AM59.0 °F57.2 °F94 %30.09 in9.0 miCalmClear
9:55 AM62.6 °F57.2 °F82 %30.09 in10.0 miCalmClear
10:15 AM62.6 °F57.2 °F82 %30.09 in10.0 miNorth (350°)4.6 mphClear
10:35 AM60.8 °F57.2 °F88 %30.10 in10.0 miCalmClear
10:55 AM62.6 °F57.2 °F82 %30.10 in10.0 miCalmClear
11:15 AM60.8 °F57.2 °F88 %30.10 in10.0 miNorth (360°)5.8 mphClear
11:35 AM60.8 °F57.2 °F88 %30.10 in10.0 miNorth (10°)6.9 mphClear
11:55 AM62.6 °F59.0 °F88 %30.09 in10.0 miNorth (360°)5.8 mphClear
12:15 PM62.6 °F59.0 °F88 %30.09 in10.0 miNorth (360°)5.8 mphClear
12:35 PM62.6 °F59.0 °F88 %30.09 in10.0 miNorth (360°)5.8 mphClear
12:55 PM64.4 °F59.0 °F83 %30.09 in10.0 miNorth (10°)4.6 mphClear
1:15 PM64.4 °F60.8 °F88 %30.09 in10.0 miNorth (360°)4.6 mphClear
1:35 PM64.4 °F60.8 °F88 %30.09 in10.0 miNorth (360°)4.6 mphClear
1:55 PM66.2 °F60.8 °F83 %30.08 in10.0 miCalmClear
2:15 PM66.2 °F60.8 °F83 %30.08 in10.0 miNorth (360°)4.6 mphClear
2:35 PM66.2 °F60.8 °F83 %30.07 in10.0 miNorth (360°)4.6 mphClear
2:55 PM66.2 °F60.8 °F83 %30.07 in10.0 miNorth (350°)4.6 mphClear
3:15 PM64.4 °F59.0 °F83 %30.06 in10.0 miNorth (350°)5.8 mphClear
3:35 PM64.4 °F59.0 °F83 %30.06 in10.0 miNorth (360°)4.6 mphClear
3:55 PM64.4 °F60.8 °F88 %30.05 in10.0 miNorth (350°)4.6 mphClear
4:15 PM66.2 °F60.8 °F83 %30.05 in10.0 miNNW (340°)3.5 mphClear
4:35 PM66.2 °F60.8 °F83 %30.05 in10.0 miNNW (330°)3.5 mphClear
4:55 PM68.0 °F59.0 °F73 %30.04 in10.0 miCalmClear
5:15 PM68.0 °F60.8 °F78 %30.04 in10.0 miCalmClear
5:35 PM66.2 °F59.0 °F78 %30.04 in10.0 miCalmClear
5:55 PM68.0 °F59.0 °F73 %30.03 in10.0 miCalmClear
6:15 PM69.8 °F59.0 °F68 %30.03 in10.0 miCalmClear
6:35 PM66.2 °F60.8 °F83 %30.03 in10.0 miCalmClear
6:55 PM66.2 °F59.0 °F78 %30.02 in10.0 miNorthClear
7:15 PM68.0 °F59.0 °F73 %30.02 in10.0 miSouth (180°)3.5 mphClear
7:35 PM64.4 °F59.0 °F83 %30.01 in10.0 miSSE (160°)4.6 mphClear
7:55 PM64.4 °F57.2 °F77 %30.01 in10.0 miSouth (180°)6.9 mphClear
8:15 PM62.6 °F57.2 °F82 %30.01 in10.0 miSouth (180°)8.1 mphClear
8:35 PM62.6 °F57.2 °F82 %30.02 in10.0 miSouth (170°)8.1 mphClear
8:55 PM62.6 °F57.2 °F82 %30.02 in10.0 miSouth (180°)9.2 mph16.1 mphClear
9:15 PM62.6 °F57.2 °F82 %30.02 in10.0 miSouth (170°)9.2 mph16.1 mphClear
9:35 PM59.0 °F57.2 °F94 %30.03 in10.0 miSouth (180°)9.2 mphClear
9:55 PM59.0 °F57.2 °F94 %30.02 in10.0 miSouth (180°)9.2 mphClear
10:15 PM59.0 °F57.2 °F94 %30.02 in10.0 miSouth (180°)9.2 mphClear
10:35 PM59.0 °F57.2 °F94 %30.03 in10.0 miSouth (170°)5.8 mphClear
10:55 PM59.0 °F55.4 °F88 %30.03 in10.0 miSouth (180°)5.8 mphClear
11:15 PM59.0 °F55.4 °F88 %30.03 in10.0 miSouth (180°)4.6 mphClear
11:35 PM57.2 °F55.4 °F94 %30.02 in10.0 miSouth (180°)6.9 mphClear
11:55 PM57.2 °F55.4 °F94 %30.02 in10.0 miSouth (170°)3.5 mphClear
Hourly data recorded from CZBB, located miles away from Vancouver, British Columbia







STORIES FROM OUR PARTNERS